THA433 VTBS-WIII

Flight info

Callsign THA433
Flight time 2h 56m
Altitude 39000
Route BUT1G BUT Y11 PASVA Y514 LERKA/N0483F410 Y514 NUFFA DCT BIKTA B469 VMR B338 ANITO B470 BUNIK
Aircraft A359/H-SDE2E3GHIJ1J3J4J5LM1ORWXY/LB1D1

Departure

Time 2026-05-07 15:23
Airport Suvarnabhumi Airport (VTBS)

Arrival

Time 2026-05-07 18:19
Airport Soekarno-Hatta International Airport (WIII)
Time Latitude Longitude Altitude Speed Heading
2026-05-07 15:06 13.68095 100.74972 19 ft 0 kts 14°
2026-05-07 15:11 13.68091 100.74970 21 ft 2 kts 14°
2026-05-07 15:11 13.68072 100.74965 19 ft 3 kts 14°
2026-05-07 15:12 13.68052 100.74960 19 ft 3 kts 14°
2026-05-07 15:12 13.68037 100.74956 19 ft 3 kts 11°
2026-05-07 15:12 13.68017 100.74954 22 ft 3 kts 346°
2026-05-07 15:12 13.68001 100.74962 22 ft 3 kts 306°
2026-05-07 15:13 13.67993 100.74980 19 ft 3 kts 281°
2026-05-07 15:13 13.67989 100.74999 19 ft 2 kts 283°
2026-05-07 15:13 13.67987 100.75007 21 ft 1 kts 284°
2026-05-07 15:13 13.67987 100.75008 21 ft 0 kts 284°
2026-05-07 15:16 13.67987 100.75007 21 ft 1 kts 284°
2026-05-07 15:16 13.68009 100.74922 19 ft 19 kts 284°
2026-05-07 15:17 13.68043 100.74786 21 ft 20 kts 284°
2026-05-07 15:17 13.68079 100.74642 19 ft 21 kts 285°
2026-05-07 15:17 13.68118 100.74490 20 ft 22 kts 282°
2026-05-07 15:17 13.68157 100.74331 22 ft 23 kts 284°
2026-05-07 15:18 13.68198 100.74165 21 ft 24 kts 284°
2026-05-07 15:18 13.68306 100.74071 22 ft 22 kts
2026-05-07 15:18 13.68462 100.74108 22 ft 23 kts 14°
2026-05-07 15:18 13.68624 100.74151 21 ft 25 kts 14°
2026-05-07 15:19 13.68793 100.74195 23 ft 26 kts 14°
2026-05-07 15:19 13.68969 100.74242 23 ft 27 kts 14°
2026-05-07 15:19 13.69152 100.74290 22 ft 28 kts 14°
2026-05-07 15:19 13.69342 100.74340 22 ft 29 kts 14°
2026-05-07 15:20 13.69539 100.74392 22 ft 30 kts 14°
2026-05-07 15:20 13.69735 100.74444 21 ft 29 kts 15°
2026-05-07 15:20 13.69933 100.74495 23 ft 30 kts 13°
2026-05-07 15:20 13.70132 100.74546 22 ft 27 kts 14°
2026-05-07 15:21 13.70297 100.74553 23 ft 21 kts 314°
2026-05-07 15:21 13.70333 100.74449 20 ft 1 kts 284°
2026-05-07 15:21 13.70334 100.74448 20 ft 0 kts 284°
2026-05-07 15:22 13.70346 100.74390 23 ft 19 kts 275°
2026-05-07 15:22 13.70262 100.74292 23 ft 5 kts 195°
2026-05-07 15:22 13.70261 100.74291 21 ft 0 kts 195°
2026-05-07 15:22 13.70063 100.74239 23 ft 65 kts 194°
2026-05-07 15:23 13.69406 100.74068 21 ft 128 kts 194°
2026-05-07 15:23 13.68375 100.73799 141 ft 168 kts 194°
2026-05-07 15:23 13.67228 100.73498 815 ft 168 kts 194°
2026-05-07 15:23 13.66100 100.73215 1632 ft 165 kts 194°
2026-05-07 15:24 13.64991 100.72942 2404 ft 162 kts 193°
2026-05-07 15:24 13.63885 100.72663 3049 ft 165 kts 194°
2026-05-07 15:24 13.62774 100.72364 3665 ft 163 kts 195°
2026-05-07 15:24 13.61640 100.72044 3947 ft 174 kts 197°
2026-05-07 15:25 13.60443 100.71677 4217 ft 185 kts 197°
2026-05-07 15:25 13.59146 100.71323 4414 ft 202 kts 193°
2026-05-07 15:25 13.57729 100.70967 4612 ft 217 kts 193°
2026-05-07 15:25 13.56215 100.70581 4869 ft 230 kts 194°
2026-05-07 15:26 13.54607 100.70164 5081 ft 248 kts 194°
2026-05-07 15:26 13.52873 100.69727 5338 ft 264 kts 192°
2026-05-07 15:26 13.51025 100.69478 5764 ft 271 kts 185°
2026-05-07 15:26 13.49128 100.69340 6263 ft 276 kts 183°
2026-05-07 15:27 13.47202 100.69219 6770 ft 279 kts 183°
2026-05-07 15:27 13.45249 100.69090 7308 ft 283 kts 183°
2026-05-07 15:27 13.43272 100.68956 7831 ft 285 kts 183°
2026-05-07 15:27 13.41282 100.68820 8349 ft 288 kts 183°
2026-05-07 15:28 13.39270 100.68684 8847 ft 291 kts 183°
2026-05-07 15:28 13.37234 100.68545 9353 ft 295 kts 183°
2026-05-07 15:28 13.35187 100.68404 9880 ft 296 kts 183°
2026-05-07 15:28 13.33127 100.68263 10298 ft 298 kts 183°
2026-05-07 15:29 13.31057 100.68122 10398 ft 298 kts 183°
2026-05-07 15:29 13.28991 100.68161 10357 ft 297 kts 169°
2026-05-07 15:29 13.27097 100.68900 10378 ft 297 kts 150°
2026-05-07 15:29 13.25313 100.70036 10531 ft 308 kts 147°
2026-05-07 15:30 13.23349 100.71024 10737 ft 321 kts 158°
2026-05-07 15:30 13.21209 100.71759 10956 ft 332 kts 163°
2026-05-07 15:30 13.18931 100.72375 11164 ft 342 kts 166°
2026-05-07 15:30 13.16572 100.72919 11423 ft 351 kts 167°
2026-05-07 15:31 13.14977 100.73266 11663 ft 354 kts 167°
2026-05-07 15:31 13.12561 100.73787 12084 ft 356 kts 167°
2026-05-07 15:31 13.10126 100.74313 12496 ft 358 kts 167°
2026-05-07 15:31 13.07805 100.74823 12854 ft 361 kts 167°
2026-05-07 15:32 13.05348 100.75383 13239 ft 363 kts 166°
2026-05-07 15:32 13.02876 100.75958 13622 ft 365 kts 166°
2026-05-07 15:32 13.00391 100.76538 14011 ft 367 kts 166°
2026-05-07 15:32 12.97886 100.77123 14382 ft 369 kts 166°
2026-05-07 15:33 12.95372 100.77710 14746 ft 372 kts 166°
2026-05-07 15:33 12.92842 100.78301 15113 ft 374 kts 166°
2026-05-07 15:33 12.90300 100.78894 15482 ft 376 kts 166°
2026-05-07 15:33 12.87738 100.79492 15850 ft 378 kts 166°
2026-05-07 15:34 12.85168 100.80093 16211 ft 380 kts 166°
2026-05-07 15:34 12.82580 100.80696 16566 ft 382 kts 166°
2026-05-07 15:34 12.79986 100.81303 16915 ft 384 kts 166°
2026-05-07 15:34 12.77376 100.81912 17256 ft 386 kts 166°
2026-05-07 15:35 12.74782 100.82515 17584 ft 388 kts 166°
2026-05-07 15:35 12.72109 100.83136 17902 ft 390 kts 166°
2026-05-07 15:35 12.69457 100.83754 18234 ft 392 kts 166°
2026-05-07 15:35 12.66797 100.84374 18548 ft 394 kts 166°
2026-05-07 15:36 12.64116 100.84998 18863 ft 396 kts 166°
2026-05-07 15:36 12.61423 100.85627 19171 ft 397 kts 166°
2026-05-07 15:36 12.58754 100.86247 19455 ft 400 kts 166°
2026-05-07 15:36 12.56036 100.86878 19746 ft 401 kts 166°
2026-05-07 15:37 12.53304 100.87513 20048 ft 403 kts 166°
2026-05-07 15:37 12.50566 100.88150 20332 ft 406 kts 166°
2026-05-07 15:37 12.47806 100.88793 20631 ft 407 kts 166°
2026-05-07 15:37 12.45032 100.89438 20904 ft 409 kts 166°
2026-05-07 15:38 12.42253 100.90083 21160 ft 411 kts 166°
2026-05-07 15:38 12.39456 100.90731 21428 ft 412 kts 166°
2026-05-07 15:38 12.36652 100.91383 21685 ft 414 kts 166°
2026-05-07 15:38 12.33838 100.92037 21941 ft 416 kts 166°
2026-05-07 15:39 12.31010 100.92697 22178 ft 417 kts 166°
2026-05-07 15:39 12.28172 100.93360 22426 ft 419 kts 166°
2026-05-07 15:39 12.25326 100.94019 22676 ft 421 kts 166°
2026-05-07 15:39 12.22465 100.94681 22881 ft 422 kts 166°
2026-05-07 15:40 12.19589 100.95346 23110 ft 424 kts 166°
2026-05-07 15:40 12.16707 100.96012 23337 ft 425 kts 166°
2026-05-07 15:40 12.13855 100.96673 23542 ft 427 kts 166°
2026-05-07 15:40 12.10945 100.97347 23759 ft 428 kts 166°
2026-05-07 15:41 12.08027 100.98022 23969 ft 430 kts 166°
2026-05-07 15:41 12.05112 100.98698 24169 ft 431 kts 166°
2026-05-07 15:41 12.02178 100.99379 24362 ft 433 kts 166°
2026-05-07 15:41 11.99238 101.00060 24545 ft 434 kts 166°
2026-05-07 15:42 11.96288 101.00744 24743 ft 435 kts 166°
2026-05-07 15:42 11.93326 101.01431 24940 ft 436 kts 166°
2026-05-07 15:42 11.90365 101.02117 25122 ft 438 kts 166°
2026-05-07 15:42 11.87383 101.02807 25306 ft 439 kts 166°
2026-05-07 15:43 11.84397 101.03497 25492 ft 440 kts 166°
2026-05-07 15:43 11.81442 101.04180 25671 ft 442 kts 166°
2026-05-07 15:43 11.78445 101.04872 25856 ft 442 kts 166°
2026-05-07 15:43 11.75437 101.05566 26023 ft 444 kts 166°
2026-05-07 15:44 11.72409 101.06266 26200 ft 446 kts 166°
2026-05-07 15:44 11.69383 101.06966 26385 ft 447 kts 166°
2026-05-07 15:44 11.66346 101.07669 26573 ft 448 kts 166°
2026-05-07 15:44 11.63300 101.08373 26758 ft 449 kts 166°
2026-05-07 15:45 11.60233 101.09023 26930 ft 451 kts 168°
2026-05-07 15:45 11.57140 101.09598 27131 ft 452 kts 169°
2026-05-07 15:45 11.54037 101.10144 27323 ft 453 kts 169°
2026-05-07 15:45 11.50923 101.10687 27504 ft 454 kts 169°
2026-05-07 15:46 11.44709 101.11800 27856 ft 457 kts 169°
2026-05-07 15:46 11.41571 101.12375 28049 ft 458 kts 169°
2026-05-07 15:46 11.38421 101.12955 28238 ft 460 kts 169°
2026-05-07 15:47 11.35270 101.13538 28410 ft 461 kts 169°
2026-05-07 15:47 11.32111 101.14125 28600 ft 462 kts 169°
2026-05-07 15:47 11.28934 101.14715 28767 ft 464 kts 169°
2026-05-07 15:47 11.25758 101.15306 28972 ft 465 kts 169°
2026-05-07 15:48 11.22572 101.15898 29136 ft 466 kts 169°
2026-05-07 15:48 11.19373 101.16491 29319 ft 467 kts 169°
2026-05-07 15:48 11.16167 101.17084 29498 ft 469 kts 169°
2026-05-07 15:48 11.12951 101.17680 29676 ft 470 kts 169°
2026-05-07 15:49 11.09729 101.18276 29850 ft 471 kts 169°
2026-05-07 15:49 11.06535 101.18868 30037 ft 473 kts 169°
2026-05-07 15:49 11.03295 101.19470 30222 ft 474 kts 169°
2026-05-07 15:49 11.00048 101.20071 30417 ft 475 kts 169°
2026-05-07 15:50 10.96750 101.20680 30612 ft 477 kts 169°
2026-05-07 15:50 10.93521 101.21277 30816 ft 478 kts 169°
2026-05-07 15:50 10.90234 101.21887 31004 ft 480 kts 169°
2026-05-07 15:50 10.86950 101.22494 31206 ft 481 kts 169°
2026-05-07 15:51 10.83654 101.23104 31396 ft 482 kts 169°
2026-05-07 15:51 10.80342 101.23716 31567 ft 484 kts 169°
2026-05-07 15:51 10.77028 101.24330 31737 ft 485 kts 169°
2026-05-07 15:51 10.73700 101.24946 31907 ft 486 kts 169°
2026-05-07 15:52 10.70363 101.25562 32089 ft 488 kts 169°
2026-05-07 15:52 10.67021 101.26178 32254 ft 489 kts 169°
2026-05-07 15:52 10.63665 101.26794 32423 ft 490 kts 169°
2026-05-07 15:52 10.60300 101.27414 32583 ft 492 kts 169°
2026-05-07 15:53 10.56927 101.28037 32729 ft 493 kts 169°
2026-05-07 15:53 10.53544 101.28663 32886 ft 494 kts 169°
2026-05-07 15:53 10.50158 101.29288 33040 ft 495 kts 169°
2026-05-07 15:53 10.46761 101.29916 33199 ft 497 kts 169°
2026-05-07 15:54 10.43361 101.30543 33343 ft 498 kts 169°
2026-05-07 15:54 10.39949 101.31171 33477 ft 499 kts 169°
2026-05-07 15:54 10.36527 101.31803 33625 ft 500 kts 169°
2026-05-07 15:54 10.33100 101.32435 33744 ft 501 kts 169°
2026-05-07 15:55 10.29667 101.33071 33905 ft 502 kts 169°
2026-05-07 15:55 10.26215 101.33712 34029 ft 504 kts 169°
2026-05-07 15:55 10.22768 101.34351 34183 ft 505 kts 169°
2026-05-07 15:55 10.19356 101.34984 34330 ft 506 kts 169°
2026-05-07 15:56 10.15892 101.35626 34450 ft 507 kts 169°
2026-05-07 15:56 10.12371 101.36278 34622 ft 507 kts 169°
2026-05-07 15:56 10.08939 101.36912 34848 ft 507 kts 169°
2026-05-07 15:56 10.05431 101.37562 35081 ft 506 kts 169°
2026-05-07 15:57 10.02176 101.38165 35308 ft 505 kts 169°
2026-05-07 15:57 9.98552 101.38835 35534 ft 505 kts 169°
2026-05-07 15:57 9.95145 101.39464 35754 ft 504 kts 169°
2026-05-07 15:57 9.91649 101.40112 36002 ft 503 kts 169°
2026-05-07 15:58 9.88253 101.40741 36222 ft 503 kts 169°
2026-05-07 15:58 9.84807 101.41377 36436 ft 502 kts 169°
2026-05-07 15:58 9.81370 101.42011 36635 ft 502 kts 169°
2026-05-07 15:58 9.77932 101.42647 36857 ft 501 kts 169°
2026-05-07 15:59 9.74510 101.43277 37166 ft 498 kts 169°
2026-05-07 15:59 9.71111 101.43902 37522 ft 494 kts 169°
2026-05-07 15:59 9.67730 101.44524 37810 ft 493 kts 169°
2026-05-07 15:59 9.64360 101.45147 38042 ft 492 kts 169°
2026-05-07 16:00 9.61003 101.45767 38248 ft 491 kts 169°
2026-05-07 16:00 9.57638 101.46389 38440 ft 491 kts 169°
2026-05-07 16:00 9.54278 101.47009 38625 ft 490 kts 169°
2026-05-07 16:00 9.50918 101.47630 38798 ft 491 kts 169°
2026-05-07 16:01 9.47557 101.48251 38880 ft 492 kts 169°
2026-05-07 16:01 9.40820 101.49490 38888 ft 492 kts 169°
2026-05-07 16:02 9.34096 101.50727 38889 ft 492 kts 169°
2026-05-07 16:02 9.27366 101.51968 38889 ft 492 kts 169°
2026-05-07 16:03 9.20636 101.53213 38888 ft 492 kts 169°
2026-05-07 16:03 9.13907 101.54461 38888 ft 491 kts 169°
2026-05-07 16:04 9.07174 101.55708 38888 ft 492 kts 169°
2026-05-07 16:04 9.00441 101.56957 38880 ft 492 kts 169°
2026-05-07 16:05 8.93706 101.58207 38877 ft 492 kts 169°
2026-05-07 16:05 8.86975 101.59454 38877 ft 492 kts 169°
2026-05-07 16:06 8.80244 101.60701 38880 ft 492 kts 169°
2026-05-07 16:06 8.73497 101.61950 38878 ft 492 kts 169°
2026-05-07 16:07 8.66747 101.63200 38880 ft 493 kts 170°
2026-05-07 16:07 8.60000 101.64448 38877 ft 493 kts 169°
2026-05-07 16:08 8.53250 101.65698 38873 ft 493 kts 169°
2026-05-07 16:08 8.46540 101.66941 38860 ft 493 kts 169°
2026-05-07 16:09 8.39780 101.68190 38860 ft 493 kts 169°
2026-05-07 16:09 8.33026 101.69437 38860 ft 494 kts 169°
2026-05-07 16:10 8.26265 101.70684 38860 ft 494 kts 169°
2026-05-07 16:10 8.19506 101.71932 38860 ft 494 kts 169°
2026-05-07 16:11 8.12743 101.73181 38860 ft 494 kts 169°
2026-05-07 16:11 8.05990 101.74429 38851 ft 494 kts 169°
2026-05-07 16:12 7.99221 101.75678 38850 ft 494 kts 169°
2026-05-07 16:12 7.92442 101.76927 38850 ft 494 kts 169°
2026-05-07 16:13 7.85672 101.78174 38850 ft 494 kts 169°
2026-05-07 16:13 7.78904 101.79421 38850 ft 494 kts 169°
2026-05-07 16:14 7.72134 101.80668 38841 ft 494 kts 169°
2026-05-07 16:14 7.65371 101.81913 38841 ft 494 kts 169°
2026-05-07 16:15 7.58639 101.83151 38841 ft 495 kts 169°
2026-05-07 16:15 7.51871 101.84397 38841 ft 494 kts 169°
2026-05-07 16:16 7.46200 101.85441 38841 ft 494 kts 169°
2026-05-07 16:16 7.39434 101.86692 38832 ft 494 kts 169°
2026-05-07 16:17 7.32672 101.87937 38831 ft 494 kts 169°
2026-05-07 16:17 7.25945 101.89169 38832 ft 494 kts 169°
2026-05-07 16:18 7.19188 101.90409 38831 ft 493 kts 169°
2026-05-07 16:18 7.12423 101.91649 38832 ft 493 kts 169°
2026-05-07 16:19 7.05667 101.92890 38822 ft 493 kts 169°
2026-05-07 16:19 6.98914 101.94129 38822 ft 493 kts 169°
2026-05-07 16:20 6.92162 101.95368 38823 ft 493 kts 169°
2026-05-07 16:20 6.85410 101.96606 38823 ft 492 kts 169°
2026-05-07 16:21 6.78669 101.97841 38823 ft 493 kts 169°
2026-05-07 16:21 6.71921 101.99079 38823 ft 493 kts 169°
2026-05-07 16:22 6.65177 102.00316 38823 ft 492 kts 169°
2026-05-07 16:22 6.58437 102.01556 38823 ft 492 kts 169°
2026-05-07 16:23 6.51688 102.02791 38823 ft 493 kts 169°
2026-05-07 16:23 6.44988 102.04017 38830 ft 492 kts 169°
2026-05-07 16:24 6.38246 102.05251 38839 ft 493 kts 169°
2026-05-07 16:24 6.31504 102.06485 38851 ft 493 kts 169°
2026-05-07 16:25 6.24811 102.07931 38867 ft 492 kts 163°
2026-05-07 16:25 6.18271 102.09971 38868 ft 492 kts 161°
2026-05-07 16:26 6.11763 102.12113 38878 ft 491 kts 161°
2026-05-07 16:26 6.05276 102.14267 38878 ft 491 kts 161°
2026-05-07 16:27 5.98779 102.16417 38879 ft 491 kts 161°
2026-05-07 16:27 5.92283 102.18556 38877 ft 491 kts 161°
2026-05-07 16:28 5.85782 102.20691 38868 ft 491 kts 161°
2026-05-07 16:28 5.79320 102.22812 38870 ft 492 kts 161°
2026-05-07 16:29 5.72820 102.24964 38868 ft 492 kts 160°
2026-05-07 16:29 5.66449 102.27450 38871 ft 491 kts 157°
2026-05-07 16:30 5.60135 102.30077 38888 ft 491 kts 157°
2026-05-07 16:30 5.53806 102.32667 38887 ft 491 kts 157°
2026-05-07 16:31 5.47460 102.35223 38887 ft 491 kts 158°
2026-05-07 16:31 5.41104 102.37762 38887 ft 491 kts 158°
2026-05-07 16:32 5.34750 102.40292 38889 ft 491 kts 158°
2026-05-07 16:32 5.28397 102.42826 39105 ft 491 kts 158°
2026-05-07 16:32 5.25229 102.44089 39320 ft 489 kts 158°
2026-05-07 16:33 5.22066 102.45351 39483 ft 490 kts 158°
2026-05-07 16:33 5.18901 102.46615 39653 ft 489 kts 158°
2026-05-07 16:33 5.15735 102.47880 39840 ft 489 kts 158°
2026-05-07 16:33 5.12617 102.49134 39993 ft 489 kts 158°
2026-05-07 16:34 5.09459 102.50396 40137 ft 489 kts 158°
2026-05-07 16:34 5.06303 102.51654 40283 ft 489 kts 158°
2026-05-07 16:34 5.03141 102.52913 40424 ft 489 kts 158°
2026-05-07 16:34 4.99977 102.54172 40562 ft 488 kts 158°
2026-05-07 16:35 4.96818 102.55431 40685 ft 488 kts 158°
2026-05-07 16:35 4.93660 102.56690 40812 ft 488 kts 158°
2026-05-07 16:35 4.90500 102.57953 40889 ft 490 kts 158°
2026-05-07 16:36 4.84144 102.60487 40887 ft 491 kts 158°
2026-05-07 16:36 4.77793 102.63016 40887 ft 491 kts 158°
2026-05-07 16:37 4.71449 102.65544 40881 ft 491 kts 158°
2026-05-07 16:37 4.65142 102.68058 40888 ft 491 kts 158°
2026-05-07 16:38 4.58798 102.70588 40888 ft 491 kts 158°
2026-05-07 16:38 4.52456 102.73119 40883 ft 491 kts 158°
2026-05-07 16:39 4.46097 102.75648 40886 ft 491 kts 158°
2026-05-07 16:39 4.39746 102.78174 40883 ft 491 kts 158°
2026-05-07 16:40 4.33402 102.80699 40889 ft 491 kts 158°
2026-05-07 16:40 4.27052 102.83228 40891 ft 491 kts 158°
2026-05-07 16:41 4.20698 102.85756 40888 ft 491 kts 158°
2026-05-07 16:41 4.14353 102.88282 40893 ft 491 kts 158°
2026-05-07 16:42 4.08052 102.90789 40884 ft 491 kts 158°
2026-05-07 16:42 4.01699 102.93316 40886 ft 491 kts 158°
2026-05-07 16:43 3.95353 102.95840 40887 ft 491 kts 158°
2026-05-07 16:43 3.88999 102.98367 40892 ft 490 kts 158°
2026-05-07 16:44 3.82661 103.00887 40883 ft 490 kts 158°
2026-05-07 16:44 3.76323 103.03410 40891 ft 490 kts 158°
2026-05-07 16:45 3.69992 103.05928 40882 ft 490 kts 158°
2026-05-07 16:45 3.63654 103.08444 40882 ft 490 kts 158°
2026-05-07 16:46 3.57316 103.10961 40881 ft 490 kts 158°
2026-05-07 16:46 3.50983 103.13477 40887 ft 490 kts 158°
2026-05-07 16:47 3.44683 103.15980 40891 ft 489 kts 158°
2026-05-07 16:47 3.38353 103.18494 40890 ft 489 kts 158°
2026-05-07 16:48 3.32024 103.21132 40882 ft 489 kts 152°
2026-05-07 16:48 3.26520 103.25003 40893 ft 488 kts 136°
2026-05-07 16:49 3.21710 103.29853 40892 ft 488 kts 133°
2026-05-07 16:49 3.17111 103.34791 40891 ft 488 kts 132°
2026-05-07 16:50 3.12483 103.39766 40888 ft 488 kts 133°
2026-05-07 16:50 3.07830 103.44721 40888 ft 488 kts 133°
2026-05-07 16:51 3.03168 103.49661 40890 ft 488 kts 133°
2026-05-07 16:51 2.98500 103.54603 40884 ft 488 kts 133°
2026-05-07 16:52 2.93836 103.59542 40890 ft 488 kts 133°
2026-05-07 16:52 2.88773 103.64050 40890 ft 488 kts 146°
2026-05-07 16:53 2.82776 103.67241 40892 ft 489 kts 155°
2026-05-07 16:53 2.76569 103.70031 40888 ft 489 kts 156°
2026-05-07 16:54 2.70339 103.72769 40891 ft 489 kts 156°
2026-05-07 16:54 2.64177 103.75556 40891 ft 489 kts 155°
2026-05-07 16:55 2.57993 103.78389 40885 ft 489 kts 155°
2026-05-07 16:55 2.51807 103.81226 40889 ft 489 kts 155°
2026-05-07 16:56 2.45621 103.84058 40891 ft 489 kts 155°
2026-05-07 16:56 2.36052 103.87541 40894 ft 489 kts 168°
2026-05-07 16:57 2.29347 103.88722 40883 ft 489 kts 171°
2026-05-07 16:57 2.22614 103.89743 40887 ft 489 kts 171°
2026-05-07 16:58 2.15878 103.90759 40892 ft 489 kts 171°
2026-05-07 16:58 2.09156 103.91796 40886 ft 489 kts 171°
2026-05-07 16:59 2.02432 103.92845 40892 ft 489 kts 171°
2026-05-07 16:59 1.96841 103.93719 40884 ft 489 kts 171°
2026-05-07 17:00 1.89024 103.94940 40884 ft 489 kts 171°
2026-05-07 17:00 1.82296 103.95990 40891 ft 489 kts 171°
2026-05-07 17:01 1.75539 103.97045 40820 ft 496 kts 171°
2026-05-07 17:01 1.68676 103.98102 40686 ft 501 kts 171°
2026-05-07 17:02 1.62932 103.98972 40686 ft 502 kts 171°
2026-05-07 17:02 1.56019 104.00020 40648 ft 501 kts 171°
2026-05-07 17:03 1.49115 104.01071 40612 ft 502 kts 171°
2026-05-07 17:03 1.42241 104.02346 40560 ft 503 kts 163°
2026-05-07 17:04 1.35760 104.04974 40516 ft 503 kts 155°
2026-05-07 17:04 1.29460 104.08003 40449 ft 503 kts 154°
2026-05-07 17:05 1.23185 104.11101 40390 ft 503 kts 153°
2026-05-07 17:05 1.16939 104.14171 40386 ft 503 kts 154°
2026-05-07 17:06 1.10645 104.17240 40387 ft 503 kts 154°
2026-05-07 17:06 1.04350 104.20306 40387 ft 503 kts 154°
2026-05-07 17:07 0.98123 104.23336 40383 ft 503 kts 154°
2026-05-07 17:07 0.91771 104.26421 40385 ft 503 kts 154°
2026-05-07 17:08 0.85476 104.29481 40389 ft 503 kts 154°
2026-05-07 17:08 0.79177 104.32554 40386 ft 503 kts 153°
2026-05-07 17:09 0.72956 104.35679 40386 ft 503 kts 153°
2026-05-07 17:09 0.66705 104.38844 40387 ft 503 kts 153°
2026-05-07 17:10 0.60456 104.41998 40385 ft 503 kts 153°
2026-05-07 17:10 0.54199 104.45147 40386 ft 503 kts 153°
2026-05-07 17:11 0.47947 104.48291 40383 ft 503 kts 153°
2026-05-07 17:11 0.41690 104.51438 40391 ft 503 kts 153°
2026-05-07 17:12 0.35434 104.54585 40387 ft 503 kts 153°
2026-05-07 17:12 0.29185 104.57729 40389 ft 503 kts 153°
2026-05-07 17:13 0.22921 104.60880 40388 ft 503 kts 153°
2026-05-07 17:13 0.16669 104.64024 40388 ft 503 kts 153°
2026-05-07 17:14 0.10411 104.67172 40391 ft 503 kts 153°
2026-05-07 17:14 0.04158 104.70317 40385 ft 503 kts 153°
2026-05-07 17:15 -0.02095 104.73462 40378 ft 503 kts 153°
2026-05-07 17:15 -0.08350 104.76609 40376 ft 503 kts 153°
2026-05-07 17:16 -0.14600 104.79753 40381 ft 503 kts 153°
2026-05-07 17:16 -0.20848 104.82896 40376 ft 503 kts 153°
2026-05-07 17:17 -0.27085 104.86058 40376 ft 502 kts 150°
2026-05-07 17:17 -0.32988 104.89786 40383 ft 502 kts 146°
2026-05-07 17:18 -0.38781 104.93686 40382 ft 502 kts 145°
2026-05-07 17:18 -0.44551 104.97615 40376 ft 502 kts 146°
2026-05-07 17:19 -0.50325 105.01537 40376 ft 502 kts 146°
2026-05-07 17:19 -0.56109 105.05454 40381 ft 502 kts 146°
2026-05-07 17:20 -0.61895 105.09369 40376 ft 502 kts 146°
2026-05-07 17:20 -0.67677 105.13280 40376 ft 502 kts 146°
2026-05-07 17:21 -0.73432 105.17174 40376 ft 502 kts 146°
2026-05-07 17:21 -0.79209 105.21084 40378 ft 502 kts 146°
2026-05-07 17:22 -0.84987 105.24994 40379 ft 502 kts 146°
2026-05-07 17:22 -0.90770 105.28907 40376 ft 502 kts 146°
2026-05-07 17:23 -0.96545 105.32816 40377 ft 502 kts 146°
2026-05-07 17:23 -1.02325 105.36728 40377 ft 502 kts 146°
2026-05-07 17:24 -1.08108 105.40642 40376 ft 502 kts 146°
2026-05-07 17:24 -1.13881 105.44550 40377 ft 502 kts 146°
2026-05-07 17:25 -1.19669 105.48468 40378 ft 502 kts 146°
2026-05-07 17:25 -1.25413 105.52357 40377 ft 502 kts 146°
2026-05-07 17:26 -1.31192 105.56268 40383 ft 502 kts 146°
2026-05-07 17:26 -1.36971 105.60181 40377 ft 502 kts 146°
2026-05-07 17:27 -1.42763 105.64103 40377 ft 502 kts 146°
2026-05-07 17:27 -1.48587 105.68046 40377 ft 502 kts 146°
2026-05-07 17:28 -1.54334 105.71937 40377 ft 502 kts 146°
2026-05-07 17:28 -1.60123 105.75858 40378 ft 502 kts 146°
2026-05-07 17:29 -1.65907 105.79775 40376 ft 502 kts 146°
2026-05-07 17:29 -1.71694 105.83695 40379 ft 502 kts 146°
2026-05-07 17:30 -1.77481 105.87614 40376 ft 502 kts 146°
2026-05-07 17:30 -1.83269 105.91535 40378 ft 502 kts 146°
2026-05-07 17:31 -1.89056 105.95456 40378 ft 503 kts 146°
2026-05-07 17:31 -1.94849 105.99381 40383 ft 503 kts 146°
2026-05-07 17:32 -2.00643 106.03306 40376 ft 503 kts 146°
2026-05-07 17:32 -2.05452 106.06565 40378 ft 502 kts 146°
2026-05-07 17:33 -2.12182 106.11125 40382 ft 503 kts 146°
2026-05-07 17:33 -2.18432 106.14227 40377 ft 503 kts 162°
2026-05-07 17:34 -2.25261 106.15761 40378 ft 503 kts 169°
2026-05-07 17:34 -2.32160 106.16927 40379 ft 503 kts 171°
2026-05-07 17:35 -2.39074 106.18053 40381 ft 503 kts 170°
2026-05-07 17:35 -2.45990 106.19211 40378 ft 503 kts 170°
2026-05-07 17:36 -2.52900 106.20390 40377 ft 504 kts 170°
2026-05-07 17:36 -2.59806 106.21574 40379 ft 504 kts 170°
2026-05-07 17:37 -2.66714 106.22758 40376 ft 504 kts 170°
2026-05-07 17:37 -2.73626 106.23941 40382 ft 504 kts 170°
2026-05-07 17:38 -2.77069 106.24530 40266 ft 498 kts 170°
2026-05-07 17:38 -2.80458 106.25110 40009 ft 489 kts 170°
2026-05-07 17:38 -2.83793 106.25681 39760 ft 485 kts 170°
2026-05-07 17:38 -2.87126 106.26254 39515 ft 486 kts 170°
2026-05-07 17:39 -2.90456 106.26828 39260 ft 486 kts 170°
2026-05-07 17:39 -2.93790 106.27399 39012 ft 487 kts 170°
2026-05-07 17:39 -2.97142 106.27972 38782 ft 487 kts 170°
2026-05-07 17:39 -3.00436 106.28535 38526 ft 487 kts 170°
2026-05-07 17:40 -3.03779 106.29109 38273 ft 488 kts 170°
2026-05-07 17:40 -3.07166 106.29692 38023 ft 488 kts 170°
2026-05-07 17:40 -3.10475 106.30258 37777 ft 488 kts 170°
2026-05-07 17:40 -3.13824 106.30830 37530 ft 489 kts 170°
2026-05-07 17:41 -3.17178 106.31401 37281 ft 488 kts 170°
2026-05-07 17:41 -3.20563 106.31979 37031 ft 488 kts 170°
2026-05-07 17:41 -3.23874 106.32545 36786 ft 489 kts 170°
2026-05-07 17:41 -3.27229 106.33119 36529 ft 489 kts 170°
2026-05-07 17:42 -3.30580 106.33695 36289 ft 489 kts 170°
2026-05-07 17:42 -3.33949 106.34272 36051 ft 492 kts 170°
2026-05-07 17:42 -3.37339 106.34853 35794 ft 497 kts 170°
2026-05-07 17:42 -3.40758 106.35439 35540 ft 498 kts 170°
2026-05-07 17:43 -3.44170 106.36022 35291 ft 497 kts 170°
2026-05-07 17:43 -3.47575 106.36605 35041 ft 496 kts 169°
2026-05-07 17:43 -3.50967 106.37187 34787 ft 494 kts 169°
2026-05-07 17:43 -3.54355 106.37771 34541 ft 492 kts 169°
2026-05-07 17:44 -3.57717 106.38347 34285 ft 490 kts 169°
2026-05-07 17:44 -3.61071 106.38921 34033 ft 488 kts 169°
2026-05-07 17:44 -3.64408 106.39501 33790 ft 486 kts 169°
2026-05-07 17:44 -3.67722 106.40118 33542 ft 483 kts 168°
2026-05-07 17:45 -3.69906 106.40531 33374 ft 483 kts 168°
2026-05-07 17:45 -3.73198 106.41155 33124 ft 480 kts 168°
2026-05-07 17:45 -3.76482 106.41774 32874 ft 479 kts 168°
2026-05-07 17:45 -3.80804 106.42585 32543 ft 477 kts 168°
2026-05-07 17:46 -3.84059 106.43195 32293 ft 475 kts 168°
2026-05-07 17:46 -3.87298 106.43802 32047 ft 473 kts 168°
2026-05-07 17:46 -3.89440 106.44204 31877 ft 472 kts 168°
2026-05-07 17:46 -3.92664 106.44808 31624 ft 470 kts 168°
2026-05-07 17:47 -3.95879 106.45409 31376 ft 468 kts 168°
2026-05-07 17:47 -3.99076 106.46007 31124 ft 467 kts 168°
2026-05-07 17:47 -4.02262 106.46603 30872 ft 465 kts 168°
2026-05-07 17:47 -4.05434 106.47198 30610 ft 463 kts 168°
2026-05-07 17:48 -4.08595 106.47790 30378 ft 461 kts 168°
2026-05-07 17:48 -4.11749 106.48382 30129 ft 460 kts 168°
2026-05-07 17:48 -4.14884 106.48968 29870 ft 458 kts 168°
2026-05-07 17:48 -4.18013 106.49552 29624 ft 456 kts 168°
2026-05-07 17:49 -4.21128 106.50134 29373 ft 455 kts 168°
2026-05-07 17:49 -4.24233 106.50717 29124 ft 453 kts 168°
2026-05-07 17:49 -4.27331 106.51298 28917 ft 452 kts 168°
2026-05-07 17:49 -4.30419 106.51877 28877 ft 451 kts 168°
2026-05-07 17:50 -4.36590 106.53034 28878 ft 451 kts 168°
2026-05-07 17:50 -4.42751 106.54190 28878 ft 450 kts 168°
2026-05-07 17:51 -4.48872 106.55337 28878 ft 450 kts 168°
2026-05-07 17:51 -4.55030 106.56492 28878 ft 450 kts 168°
2026-05-07 17:52 -4.61197 106.57650 28878 ft 450 kts 168°
2026-05-07 17:52 -4.67358 106.58804 28878 ft 450 kts 168°
2026-05-07 17:53 -4.73509 106.59957 28879 ft 450 kts 168°
2026-05-07 17:53 -4.79669 106.61113 28879 ft 450 kts 168°
2026-05-07 17:54 -4.85798 106.62366 28876 ft 449 kts 162°
2026-05-07 17:54 -4.88719 106.63467 28720 ft 447 kts 155°
2026-05-07 17:54 -4.91556 106.64746 28467 ft 446 kts 154°
2026-05-07 17:55 -4.94376 106.66049 28220 ft 445 kts 154°
2026-05-07 17:55 -4.97191 106.67346 27970 ft 444 kts 154°
2026-05-07 17:55 -4.99990 106.68632 27716 ft 443 kts 154°
2026-05-07 17:55 -5.02791 106.69918 27462 ft 441 kts 154°
2026-05-07 17:56 -5.05580 106.71195 27216 ft 440 kts 154°
2026-05-07 17:56 -5.08357 106.72465 26972 ft 438 kts 154°
2026-05-07 17:56 -5.11130 106.73733 26716 ft 437 kts 154°
2026-05-07 17:56 -5.13887 106.74995 26461 ft 434 kts 154°
2026-05-07 17:57 -5.16613 106.76240 26082 ft 427 kts 154°
2026-05-07 17:57 -5.18388 106.77053 25855 ft 422 kts 154°
2026-05-07 17:57 -5.21958 106.78673 25161 ft 419 kts 155°
2026-05-07 17:57 -5.24608 106.79870 24657 ft 417 kts 155°
2026-05-07 17:58 -5.27246 106.81061 24159 ft 414 kts 155°
2026-05-07 17:58 -5.29829 106.82230 23670 ft 411 kts 155°
2026-05-07 17:58 -5.32432 106.83407 23181 ft 409 kts 155°
2026-05-07 17:58 -5.35021 106.84581 22688 ft 406 kts 155°
2026-05-07 17:59 -5.37587 106.85745 22188 ft 403 kts 155°
2026-05-07 17:59 -5.40116 106.86892 21928 ft 394 kts 155°
2026-05-07 17:59 -5.42575 106.88007 21755 ft 382 kts 155°
2026-05-07 17:59 -5.45004 106.89055 21296 ft 379 kts 160°
2026-05-07 18:00 -5.47428 106.89531 20954 ft 377 kts 178°
2026-05-07 18:00 -5.49414 106.89326 20613 ft 377 kts 193°
2026-05-07 18:00 -5.51909 106.88505 20038 ft 378 kts 200°
2026-05-07 18:00 -5.54360 106.87541 19493 ft 377 kts 201°
2026-05-07 18:01 -5.56759 106.86586 19011 ft 374 kts 201°
2026-05-07 18:01 -5.59173 106.85634 18533 ft 371 kts 200°
2026-05-07 18:01 -5.61573 106.84699 18060 ft 369 kts 200°
2026-05-07 18:01 -5.63962 106.83772 17593 ft 366 kts 200°
2026-05-07 18:02 -5.68676 106.81948 16644 ft 360 kts 200°
2026-05-07 18:02 -5.71004 106.81048 16162 ft 357 kts 200°
2026-05-07 18:02 -5.73314 106.80154 15696 ft 354 kts 200°
2026-05-07 18:03 -5.75613 106.79267 15208 ft 352 kts 200°
2026-05-07 18:03 -5.77888 106.78390 14732 ft 349 kts 200°
2026-05-07 18:03 -5.80149 106.77518 14252 ft 347 kts 200°
2026-05-07 18:03 -5.82389 106.76654 13774 ft 344 kts 200°
2026-05-07 18:04 -5.84600 106.75759 13280 ft 342 kts 205°
2026-05-07 18:04 -5.86519 106.74382 12754 ft 340 kts 227°
2026-05-07 18:04 -5.87750 106.72385 12431 ft 333 kts 245°
2026-05-07 18:04 -5.88631 106.70250 12119 ft 330 kts 248°
2026-05-07 18:05 -5.89472 106.68105 11737 ft 329 kts 248°
2026-05-07 18:05 -5.90307 106.65975 11341 ft 328 kts 248°
2026-05-07 18:05 -5.91145 106.63851 10963 ft 326 kts 248°
2026-05-07 18:05 -5.91988 106.61731 10586 ft 325 kts 248°
2026-05-07 18:06 -5.92818 106.59646 10317 ft 317 kts 248°
2026-05-07 18:06 -5.93627 106.57622 10115 ft 307 kts 248°
2026-05-07 18:06 -5.94422 106.55664 9811 ft 301 kts 247°
2026-05-07 18:06 -5.95201 106.53755 9431 ft 297 kts 247°
2026-05-07 18:07 -5.95974 106.51863 9246 ft 289 kts 247°
2026-05-07 18:07 -5.96735 106.49996 9136 ft 289 kts 247°
2026-05-07 18:07 -5.97498 106.48123 8984 ft 289 kts 247°
2026-05-07 18:07 -5.98258 106.46257 8821 ft 288 kts 247°
2026-05-07 18:08 -5.99014 106.44404 8655 ft 286 kts 247°
2026-05-07 18:08 -5.99767 106.42556 8493 ft 286 kts 247°
2026-05-07 18:08 -6.00519 106.40710 8334 ft 284 kts 247°
2026-05-07 18:08 -6.01266 106.38878 8134 ft 283 kts 247°
2026-05-07 18:09 -6.02008 106.37057 7971 ft 277 kts 247°
2026-05-07 18:09 -6.02723 106.35295 7776 ft 267 kts 247°
2026-05-07 18:09 -6.03431 106.33605 7603 ft 258 kts 243°
2026-05-07 18:09 -6.04513 106.32234 7377 ft 248 kts 214°
2026-05-07 18:10 -6.06085 106.31694 7145 ft 237 kts 180°
2026-05-07 18:10 -6.07723 106.31853 6939 ft 237 kts 169°
2026-05-07 18:10 -6.09343 106.32153 6721 ft 236 kts 168°
2026-05-07 18:10 -6.10954 106.32462 6509 ft 236 kts 168°
2026-05-07 18:11 -6.12565 106.32764 6299 ft 235 kts 168°
2026-05-07 18:11 -6.13629 106.32959 6157 ft 234 kts 168°
2026-05-07 18:11 -6.15769 106.33346 5884 ft 233 kts 168°
2026-05-07 18:11 -6.17343 106.33628 5729 ft 224 kts 168°
2026-05-07 18:12 -6.18850 106.33895 5556 ft 216 kts 169°
2026-05-07 18:12 -6.20253 106.34330 5352 ft 208 kts 150°
2026-05-07 18:12 -6.21270 106.35332 5151 ft 206 kts 125°
2026-05-07 18:12 -6.22046 106.36538 4989 ft 206 kts 121°
2026-05-07 18:13 -6.22786 106.37765 4843 ft 205 kts 121°
2026-05-07 18:13 -6.23493 106.39011 4663 ft 205 kts 115°
2026-05-07 18:13 -6.23661 106.40409 4558 ft 205 kts 83°
2026-05-07 18:13 -6.23283 106.41791 4505 ft 205 kts 70°
2026-05-07 18:14 -6.22748 106.43121 4421 ft 205 kts 68°
2026-05-07 18:14 -6.22205 106.44441 4209 ft 202 kts 69°
2026-05-07 18:14 -6.21688 106.45739 3932 ft 198 kts 70°
2026-05-07 18:14 -6.21188 106.47002 3642 ft 192 kts 69°
2026-05-07 18:15 -6.20692 106.48247 3372 ft 191 kts 70°
2026-05-07 18:15 -6.20203 106.49469 3111 ft 187 kts 68°
2026-05-07 18:15 -6.19721 106.50661 2853 ft 181 kts 67°
2026-05-07 18:15 -6.19260 106.51822 2623 ft 176 kts 68°
2026-05-07 18:16 -6.18810 106.52948 2394 ft 171 kts 67°
2026-05-07 18:16 -6.18374 106.54041 2165 ft 166 kts 69°
2026-05-07 18:16 -6.17954 106.55105 1948 ft 161 kts 69°
2026-05-07 18:16 -6.17543 106.56130 1733 ft 156 kts 68°
2026-05-07 18:17 -6.17144 106.57128 1535 ft 152 kts 68°
2026-05-07 18:17 -6.16758 106.58095 1334 ft 146 kts 68°
2026-05-07 18:17 -6.16387 106.59024 1148 ft 141 kts 69°
2026-05-07 18:17 -6.16021 106.59944 964 ft 142 kts 69°
2026-05-07 18:18 -6.15649 106.60864 793 ft 143 kts 68°
2026-05-07 18:18 -6.15277 106.61782 594 ft 140 kts 68°
2026-05-07 18:18 -6.14917 106.62687 450 ft 140 kts 69°
2026-05-07 18:18 -6.14552 106.63608 270 ft 143 kts 68°
2026-05-07 18:19 -6.14192 106.64516 91 ft 141 kts 69°
2026-05-07 18:19 -6.13851 106.65376 46 ft 109 kts 68°
2026-05-07 18:19 -6.13650 106.65879 46 ft 50 kts 68°
2026-05-07 18:19 -6.13508 106.66185 46 ft 42 kts 55°
2026-05-07 18:20 -6.13363 106.66301 44 ft 9 kts
2026-05-07 18:20 -6.13311 106.66270 44 ft 10 kts 284°
2026-05-07 18:20 -6.13329 106.66197 45 ft 12 kts 247°
2026-05-07 18:20 -6.13365 106.66110 45 ft 15 kts 248°
2026-05-07 18:21 -6.13407 106.66004 45 ft 17 kts 248°
2026-05-07 18:21 -6.13455 106.65883 44 ft 20 kts 248°
2026-05-07 18:21 -6.13509 106.65749 44 ft 22 kts 248°
2026-05-07 18:21 -6.13568 106.65604 44 ft 23 kts 248°
2026-05-07 18:22 -6.13631 106.65448 45 ft 25 kts 248°
2026-05-07 18:22 -6.13648 106.65337 45 ft 24 kts 290°
2026-05-07 18:22 -6.13608 106.65298 45 ft 1 kts 297°
2026-05-07 18:22 -6.13609 106.65263 45 ft 10 kts 261°
2026-05-07 18:23 -6.13637 106.65180 45 ft 14 kts 248°
2026-05-07 18:23 -6.13675 106.65084 45 ft 15 kts 252°
2026-05-07 18:23 -6.13654 106.65032 45 ft 7 kts 323°
2026-05-07 18:23 -6.13604 106.65004 45 ft 11 kts 337°
2026-05-07 18:24 -6.13517 106.64968 44 ft 15 kts 340°
2026-05-07 18:24 -6.13410 106.64925 44 ft 21 kts 338°
2026-05-07 18:24 -6.13259 106.64863 44 ft 25 kts 338°
2026-05-07 18:24 -6.13095 106.64798 46 ft 25 kts 340°
2026-05-07 18:25 -6.12955 106.64743 64 ft 18 kts 339°
2026-05-07 18:25 -6.12822 106.64690 52 ft 26 kts 338°
2026-05-07 18:25 -6.12625 106.64612 43 ft 32 kts 338°
2026-05-07 18:25 -6.12414 106.64528 44 ft 32 kts 338°
2026-05-07 18:26 -6.12237 106.64457 45 ft 19 kts 338°
2026-05-07 18:26 -6.12145 106.64506 45 ft 17 kts 62°
2026-05-07 18:26 -6.12095 106.64625 45 ft 20 kts 68°
2026-05-07 18:26 -6.12040 106.64760 45 ft 22 kts 68°
2026-05-07 18:27 -6.11980 106.64910 45 ft 24 kts 69°
2026-05-07 18:27 -6.11916 106.65074 45 ft 26 kts 68°
2026-05-07 18:27 -6.11878 106.65250 45 ft 26 kts 107°
2026-05-07 18:27 -6.11922 106.65323 44 ft 0 kts 124°
2026-05-07 18:28 -6.11922 106.65324 44 ft 0 kts 124°
2026-05-07 18:28 -6.11927 106.65330 44 ft 7 kts 124°
2026-05-07 18:28 -6.11965 106.65373 43 ft 9 kts 149°
2026-05-07 18:29 -6.12016 106.65353 44 ft 9 kts 224°
2026-05-07 18:29 -6.12031 106.65338 43 ft 0 kts 227°
2026-05-07 18:29 -6.12031 106.65337 44 ft 0 kts 228°
2026-05-07 18:29 -6.12034 106.65334 44 ft 0 kts 229°